Simultaneous Nadir Overpasses (SNOs) Predictions

Prediction of SNOs between METOP-C and LANDSAT-8 Satellite Orbit:

Table of predicted SNOs for the next 14.0 days since TLE Epoch: 3/27/2021
Index Date (METOP-C) Time (METOP-C) Lat,Lon (METOP-C) SZA (METOP-C ) Date (LANDSAT-8) Time (LANDSAT-8) Lat,Lon (LANDSAT-8) SZA (LANDSAT-8 ) Distance(km) Time Diff (sec)
1 03/29/2021 10:17:32 -81.06,-116.15 100.70 03/29/2021 10:18:08 -81.06,-116.00 100.67 2.61 36
2 03/29/2021 11:08:11 81.09, 51.94 79.39 03/29/2021 11:07:33 81.09, 52.08 79.38 2.44 38
3 04/01/2021 05:51:53 -81.07, -49.50 101.74 04/01/2021 05:52:21 -81.07, -49.38 101.71 2.14 28
4 04/01/2021 06:42:32 81.10, 118.61 78.35 04/01/2021 06:41:46 81.10, 118.67 78.34 1.08 46
5 04/04/2021 01:26:15 -81.08, 17.13 102.76 04/04/2021 01:26:35 -81.08, 17.20 102.75 1.30 20
6 04/04/2021 02:16:54 81.11,-174.75 77.33 04/04/2021 02:16:00 81.11,-174.78 77.30 0.61 54
7 04/06/2021 21:00:37 -81.09, 83.74 103.78 04/06/2021 21:00:49 -81.09, 83.73 103.77 0.32 12
8 04/06/2021 21:51:16 81.12,-108.12 76.32 04/06/2021 21:50:14 81.11,-108.27 76.27 2.63 62
9 04/09/2021 16:34:59 -81.09, 150.33 104.78 04/09/2021 16:35:03 -81.09, 150.22 104.79 1.74 4



Historial Predications of SNOs between METOP-C and LANDSAT-8
